Location: La Comballaz
(46.3780°N, 7.0817°E)
Time: 06:01:09
(UTC+00:00)

N. Korean satellite - Pass Details

Date: 15 December 2021
Orbit: 447 x 491 km, 97.3° (Epoch: 25 January)

Event Time Altitude Azimuth Distance (km) Brightness Sun altitude
Rises 04:14:48 0° 22° (NNE) 2,462 10.4 -28.8°
Enters shadow 04:15:04 - 23° (NNE) 2,356 10.3 -28.8°
Exits shadow 04:22:14 15° 150° (SSE) 1,316 9.1 -27.5°
Drops below altitude 10° 04:23:00 10° 158° (SSE) 1,587 9.5 -27.4°
Sets 04:25:14 0° 170° (S) 2,461 10.3 -27.0°
